Stations météo

réclame
Mon MeteoGroup
Meppen, Allemagne (10304): Température de l'air & dewpoint: 08.07.2020 15:00:00 - 14.07.2020 15:00:00 (CEST)Meppen, Allemagne (10304): Vitesse du vent: 08.07.2020 15:00:00 - 14.07.2020 15:00:00 (CEST)Meppen, Allemagne (10304): Direction du vent: 08.07.2020 15:00:00 - 14.07.2020 15:00:00 (CEST)Meppen, Allemagne (10304): reduced air pressure: 08.07.2020 15:00:00 - 14.07.2020 15:00:00 (CEST)Meppen, Allemagne (10304): visibility: 08.07.2020 15:00:00 - 14.07.2020 15:00:00 (CEST)
Date & Time tt [°C] td [°C] ff [km/h] ff [knt] dd ppp [hPa] vv [km]
14.07.2020 15:00:00 14,9 12,8 11 6 SSW 1014,9 14
14.07.2020 14:00:00 17,1 11,4 18 10 SW 1014,8 18
14.07.2020 13:00:00 18,1 12,8 14 8 SW 1014,8 24
14.07.2020 12:00:00 18,1 12,7 18 10 WSW 1015,1 30
14.07.2020 11:00:00 18,3 11,5 14 8 SSW 1014,8 35
14.07.2020 10:00:00 17,3 12,8 7 4 SSW 1014,9 30
14.07.2020 09:00:00 15,5 12,0 7 4 SW 1015,2 35
14.07.2020 08:00:00 15,3 11,0 4 2 N 1015,4 40
14.07.2020 07:00:00 13,1 12,1 0 0 N 1015,6 40
14.07.2020 06:00:00 11,2 10,4 4 2 SW 1015,9 40
14.07.2020 05:00:00 10,6 9,9 0 0 N 1016,2 -
14.07.2020 04:00:00 10,5 9,7 4 2 W 1016,8 -
14.07.2020 03:00:00 10,6 9,6 0 0 N 1017,4 -
14.07.2020 02:00:00 10,8 9,6 0 0 N 1017,9 -
14.07.2020 01:00:00 11,4 9,6 0 0 N 1018,4 -
14.07.2020 00:00:00 12,7 9,7 0 0 N 1018,8 -
13.07.2020 23:00:00 14,2 10,4 0 0 N 1019,0 -
13.07.2020 22:00:00 16,1 11,4 4 2 N 1019,2 -
13.07.2020 21:00:00 19,6 10,7 4 2 NNW 1019,0 -
13.07.2020 20:00:00 21,9 9,4 7 4 W 1019,4 -
13.07.2020 19:00:00 23,1 8,9 11 6 WNW 1019,8 -
13.07.2020 18:00:00 23,5 9,3 11 6 WNW 1020,4 -
13.07.2020 17:00:00 22,9 8,7 11 6 WNW 1021,0 -
13.07.2020 16:00:00 22,9 8,5 7 4 NW 1021,6 55
13.07.2020 15:00:00 22,4 8,9 11 6 WSW 1022,2 55
13.07.2020 14:00:00 21,7 8,2 14 8 WSW 1022,8 50
13.07.2020 13:00:00 21,4 8,7 7 4 S 1023,6 50
13.07.2020 12:00:00 20,0 9,0 11 6 NW 1024,3 50
13.07.2020 11:00:00 19,9 9,1 4 2 WSW 1024,6 50
13.07.2020 10:00:00 18,3 10,7 4 2 SSE 1024,9 45
13.07.2020 09:00:00 16,4 10,7 7 4 E 1025,4 45
13.07.2020 08:00:00 13,2 9,9 4 2 E 1025,7 45
13.07.2020 07:00:00 8,8 8,4 4 2 NE 1025,8 40
13.07.2020 06:00:00 6,8 6,4 0 0 N 1025,9 35
13.07.2020 05:00:00 7,1 6,7 4 2 NNE 1026,2 -
13.07.2020 04:00:00 8,0 7,5 4 2 N 1026,6 -
13.07.2020 03:00:00 8,5 7,9 0 0 N 1026,8 -
13.07.2020 02:00:00 9,3 8,5 4 2 N 1027,0 -
13.07.2020 01:00:00 9,9 8,7 0 0 N 1027,5 -
13.07.2020 00:00:00 10,7 8,7 4 2 ENE 1027,6 -
12.07.2020 23:00:00 12,9 8,8 7 4 NNE 1027,8 -
12.07.2020 22:00:00 14,9 9,0 7 4 NNE 1027,6 -
12.07.2020 21:00:00 17,2 9,3 11 6 NNE 1027,3 -
12.07.2020 20:00:00 17,9 10,1 7 4 N 1027,4 -
12.07.2020 19:00:00 18,9 9,1 7 4 N 1027,3 -
12.07.2020 18:00:00 19,9 8,1 4 2 NE 1027,4 -
12.07.2020 17:00:00 19,5 7,2 7 4 NNW 1027,9 -
12.07.2020 16:00:00 19,9 7,7 11 6 WNW 1028,3 -
12.07.2020 15:00:00 20,1 7,8 14 8 W 1028,5 -
12.07.2020 14:00:00 20,0 6,9 7 4 W 1028,6 -
12.07.2020 13:00:00 19,6 7,4 7 4 NW 1028,7 -
12.07.2020 12:00:00 17,6 7,4 4 2 ENE 1028,8 -
12.07.2020 11:00:00 17,0 7,4 7 4 NW 1028,8 -
12.07.2020 10:00:00 16,1 8,9 7 4 NNW 1028,9 -
12.07.2020 09:00:00 15,2 9,5 7 4 NW 1028,4 -
12.07.2020 08:00:00 13,4 9,7 4 2 N 1027,8 -
12.07.2020 07:00:00 10,2 9,8 0 0 N 1027,6 -
12.07.2020 06:00:00 7,9 7,4 0 0 N 1027,2 -
12.07.2020 05:00:00 7,9 7,4 4 2 NNW 1027,1 -
12.07.2020 04:00:00 8,6 8,2 0 0 N 1027,0 -
12.07.2020 03:00:00 9,8 9,2 4 2 N 1027,1 -
12.07.2020 02:00:00 11,0 10,5 4 2 WNW 1026,8 -
12.07.2020 01:00:00 10,9 10,1 0 0 N 1026,6 -
12.07.2020 00:00:00 11,3 10,5 4 2 N 1026,7 -
11.07.2020 23:00:00 12,0 10,7 4 2 NNE 1026,5 -
11.07.2020 22:00:00 14,0 11,2 4 2 SSW 1026,1 -
11.07.2020 21:00:00 15,3 10,7 4 2 N 1025,7 -
11.07.2020 20:00:00 17,0 9,4 14 8 N 1025,3 -
11.07.2020 19:00:00 17,6 9,2 7 4 N 1024,9 -
11.07.2020 18:00:00 18,7 9,2 11 6 NNE 1024,6 -
11.07.2020 17:00:00 17,1 8,0 11 6 NNW 1024,6 -
11.07.2020 16:00:00 17,4 9,2 7 4 NW 1024,6 -
11.07.2020 15:00:00 17,0 9,2 7 4 WNW 1024,3 -
11.07.2020 14:00:00 17,4 9,1 11 6 W 1024,1 -
11.07.2020 13:00:00 16,8 9,6 11 6 W 1023,7 -
11.07.2020 12:00:00 17,2 8,8 11 6 W 1023,6 -
11.07.2020 11:00:00 16,1 8,8 11 6 WNW 1023,3 -
11.07.2020 10:00:00 15,9 8,9 11 6 W 1023,1 -
11.07.2020 09:00:00 14,2 10,6 11 6 W 1022,8 -
11.07.2020 08:00:00 11,6 9,8 11 6 WSW 1022,5 -
11.07.2020 07:00:00 10,2 9,2 11 6 W 1022,2 -
11.07.2020 06:00:00 9,0 8,6 11 6 W 1021,7 -
11.07.2020 05:00:00 7,9 7,5 4 2 WSW 1021,4 -
11.07.2020 04:00:00 8,2 7,8 4 2 W 1021,2 -
11.07.2020 03:00:00 8,2 7,8 7 4 WSW 1021,0 -
11.07.2020 02:00:00 8,4 7,8 4 2 W 1020,6 -
11.07.2020 01:00:00 8,7 8,0 4 2 W 1019,9 -
11.07.2020 00:00:00 9,1 8,2 4 2 W 1019,4 -
10.07.2020 23:00:00 10,1 8,7 4 2 W 1018,9 -
10.07.2020 22:00:00 11,6 9,5 4 2 NW 1018,3 -
10.07.2020 21:00:00 14,8 8,0 7 4 NNW 1017,6 -
10.07.2020 20:00:00 15,6 8,9 11 6 NNW 1017,1 -
10.07.2020 19:00:00 16,1 9,1 11 6 WNW 1016,4 -
10.07.2020 18:00:00 14,7 11,6 7 4 NNW 1016,2 -
10.07.2020 17:00:00 14,3 11,3 11 6 W 1015,5 -
10.07.2020 16:00:00 15,0 12,2 7 4 WNW 1014,7 -
10.07.2020 15:00:00 13,2 11,8 7 4 NW 1013,9 -
10.07.2020 14:00:00 15,2 11,1 14 8 NNW 1012,5 -
10.07.2020 13:00:00 15,1 12,5 11 6 NNW 1011,2 20
10.07.2020 12:00:00 13,3 12,2 11 6 N 1010,2 9
10.07.2020 11:00:00 13,0 11,9 14 8 NNW 1008,8 10
10.07.2020 10:00:00 13,3 12,3 11 6 N 1007,5 12
10.07.2020 09:00:00 13,1 12,3 11 6 N 1006,5 3,0
10.07.2020 08:00:00 13,7 12,9 9 5 N 1006,2 3,3
10.07.2020 07:00:00 16,1 15,3 13 7 SW 1005,9 3,2
10.07.2020 06:00:00 16,3 15,5 14 8 SW 1006,1 8
10.07.2020 05:00:00 16,3 15,5 11 6 SW 1006,8 -
10.07.2020 04:00:00 16,2 15,6 11 6 SSW 1007,0 -
10.07.2020 03:00:00 16,2 15,6 11 6 SSW 1008,1 -
10.07.2020 02:00:00 16,0 15,5 7 4 N 1008,5 -
10.07.2020 01:00:00 15,2 14,8 4 2 N 1009,3 -
10.07.2020 00:00:00 15,4 14,9 4 2 ESE 1010,0 -
09.07.2020 23:00:00 15,2 14,7 4 2 S 1010,5 -
09.07.2020 22:00:00 15,1 14,5 4 2 NE 1010,6 -
09.07.2020 21:00:00 15,1 14,5 4 2 NNE 1010,8 -
09.07.2020 20:00:00 15,9 15,1 11 6 N 1011,0 -
09.07.2020 19:00:00 16,7 15,9 18 10 WSW 1010,8 -
09.07.2020 18:00:00 16,8 15,8 18 10 W 1010,9 -
09.07.2020 17:00:00 17,0 16,2 14 8 W 1010,9 -
09.07.2020 16:00:00 17,4 16,5 18 10 W 1010,8 4,5
09.07.2020 15:00:00 17,2 16,2 18 10 W 1010,9 4,0
09.07.2020 14:00:00 17,1 16,3 18 10 W 1010,7 4,3
09.07.2020 13:00:00 17,7 16,3 18 10 WSW 1010,4 10
09.07.2020 12:00:00 17,1 16,2 18 10 WSW 1010,4 3,7
09.07.2020 11:00:00 15,7 15,3 5 3 SW 1010,5 6
09.07.2020 10:00:00 14,0 13,4 4 2 NNW 1010,8 4,3
09.07.2020 09:00:00 13,4 12,8 7 4 ENE 1011,4 2,8
09.07.2020 08:00:00 13,1 12,5 7 4 N 1011,8 3,5
09.07.2020 07:00:00 12,9 12,3 7 4 ENE 1012,7 2,3
09.07.2020 06:00:00 12,8 12,2 7 4 ENE 1013,3 2,7
09.07.2020 05:00:00 12,9 12,3 7 4 NE 1013,6 -
09.07.2020 04:00:00 13,1 12,3 7 4 NE 1014,2 -
09.07.2020 03:00:00 13,2 12,4 7 4 ENE 1014,7 -
09.07.2020 02:00:00 13,5 12,7 4 2 N 1014,8 -
09.07.2020 01:00:00 13,7 13,1 4 2 N 1015,2 -
09.07.2020 00:00:00 13,7 12,9 4 2 N 1015,8 -
08.07.2020 23:00:00 13,7 12,8 4 2 N 1015,6 -
08.07.2020 22:00:00 13,9 12,8 4 2 N 1015,7 -
08.07.2020 21:00:00 14,1 12,7 4 2 N 1015,7 -
08.07.2020 20:00:00 14,3 13,0 4 2 N 1015,9 -
08.07.2020 19:00:00 14,5 12,3 4 2 N 1015,9 -
08.07.2020 18:00:00 14,9 12,1 4 2 NE 1015,9 -
08.07.2020 17:00:00 14,5 12,4 4 2 E 1016,1 -
08.07.2020 16:00:00 14,2 12,4 7 4 NE 1016,0 17
08.07.2020 15:00:00 13,9 12,3 5 3 NE 1015,7 8

tt = Température de l'air
td = dewpoint
ff = Vitesse du vent
dd = Direction du vent
ppp = reduced air pressure
vv = visibility

stations d'obs. à proximité